Theta_e
302 296 292 296 299 296 295 294 292 295 300 298 298 298 301 304 305 304 305 306 307 308 312 314 315 316 317 318 318 319 320 323 325 328 329 331 331 334 332 334 335 335 336 336
297 291 296 298 299 297 295 292 292 296 299 297 295 294 298 300 301 302 303 303 304 305 306 309 311 313 314 315 317 318 318 320 323 326 328 329 330 332 333 334 332 333 334 335
290 292 297 296 297 295 294 292 292 292 296 297 295 291 294 298 300 302 302 303 303 304 305 307 309 311 312 314 316 316 318 319 320 324 325 327 329 331 330 331 332 334 332 332
292 297 294 293 292 295 290 297 295 293 291 286 294 284 292 295 296 298 300 301 302 304 306 306 307 308 309 312 317 315 316 316 318 320 321 323 324 323 326 329 330 331 332 332
290 293 292 291 292 295 291 296 294 292 290 289 289 286 290 294 293 295 299 301 302 303 304 304 305 307 307 308 311 313 313 314 316 319 320 322 323 325 326 327 326 327 329 330
294 299 296 294 296 296 297 294 293 293 290 283 287 287 287 291 293 295 299 301 302 303 303 304 304 305 307 309 311 313 313 314 318 318 319 320 322 323 323 324 324 325 327 327
291 292 297 298 293 296 295 290 283 281 281 280 289 286 289 294 296 297 298 300 303 304 303 304 304 306 307 308 308 308 308 307 311 314 318 320 321 322 322 322 321 320 320 321
285 282 292 297 293 291 291 290 283 277 279 282 287 283 289 297 298 299 300 300 302 302 304 304 305 305 305 304 305 306 304 303 305 306 306 307 308 309 309 309 309 309 310 311
285 285 294 296 297 295 291 288 292 285 283 281 285 289 294 297 297 298 298 298 300 302 303 304 303 303 303 302 301 302 302 301 301 302 304 304 304 305 305 306 307 307 307 307
290 283 290 293 297 296 294 295 285 286 278 277 283 285 286 291 293 296 297 298 300 301 302 304 304 302 301 300 300 301 301 300 300 301 301 301 301 301 302 303 302 302 303 303
292 287 286 291 289 289 290 288 289 289 286 280 279 284 293 293 295 296 298 299 300 301 301 303 304 302 301 300 300 299 299 299 299 299 300 300 299 299 300 299 299 299 300 300
292 288 283 285 291 293 293 289 290 283 282 285 284 284 295 296 297 297 297 299 301 301 302 302 304 301 299 299 298 298 297 298 297 298 298 297 297 297 298 297 298 298 298 300
292 286 281 282 287 290 289 291 291 290 288 283 281 284 295 297 297 298 297 299 301 302 302 303 303 300 299 298 297 296 296 296 296 296 296 296 296 296 296 296 296 297 297 298
295 289 286 282 284 289 285 288 291 289 284 284 285 286 291 293 294 296 298 299 300 301 301 302 303 302 300 299 298 297 295 295 294 294 294 294 294 294 295 295 296 296 296 296
293 285 287 289 288 288 288 288 289 287 289 284 287 287 291 293 295 297 298 298 298 299 300 302 303 304 302 300 299 297 296 294 294 293 294 293 293 294 294 295 295 295 295 296
293 285 287 282 288 287 285 287 288 289 290 289 289 289 296 297 298 297 297 298 298 299 300 301 303 303 302 301 299 297 295 294 294 293 293 292 292 292 292 292 293 293 293 294
289 286 283 280 286 286 281 285 287 288 290 289 285 291 295 295 295 296 297 297 298 299 300 301 302 303 302 301 299 296 295 294 292 292 291 290 289 289 289 290 290 291 291 292
287 286 286 281 281 274 285 291 291 289 290 291 291 293 294 295 296 297 298 298 298 299 300 301 302 304 305 303 299 297 295 292 292 291 289 287 287 287 287 287 287 287 288 287
292 288 283 279 278 282 284 287 287 285 286 292 291 292 294 295 295 295 298 299 300 300 301 301 303 304 305 300 297 294 291 291 290 288 287 285 284 284 284 284 284 285 285 285
290 290 284 282 276 274 284 290 293 291 281 292 292 292 293 294 288 293 298 299 300 300 301 300 298 296 297 295 292 291 290 288 287 286 284 283 282 282 283 283 283 283 283 284
282 283 280 281 278 282 289 291 293 280 283 292 294 294 294 292 294 297 299 299 298 297 295 294 293 292 292 291 290 289 288 286 284 282 281 280 280 280 281 281 281 281 282 283
281 280 280 282 279 276 292 291 284 290 294 294 294 295 294 295 296 296 297 296 296 293 290 289 289 285 286 287 287 286 284 280 279 279 278 278 278 279 279 279 280 280 282 283
281 286 284 285 284 293 295 293 296 296 294 295 294 295 295 294 293 294 294 295 293 291 287 285 284 281 281 282 284 281 277 277 276 276 275 276 276 277 277 277 278 279 281 281
285 289 285 286 289 290 293 294 293 294 294 295 295 295 294 292 292 291 291 289 286 285 283 281 280 277 275 276 276 275 274 273 274 274 274 275 275 275 276 277 277 277 277 277
286 286 285 284 287 289 290 291 292 292 293 292 291 291 291 291 290 290 290 286 284 283 280 279 278 276 273 273 271 270 270 272 273 273 273 274 274 274 274 275 275 275 276 276
286 284 283 282 288 288 288 292 292 291 290 291 290 289 289 289 289 289 286 284 282 280 279 277 275 273 271 269 267 266 267 269 272 272 272 271 272 272 273 273 273 275 275 275
Wind_Speed
9 6 11 15 15 3 6 8 10 4 7 4 12 15 17 16 17 16 17 17 19 20 20 17 16 14 14 14 13 11 11 11 9 8 8 8 9 8 8 9 12 13 11 12
5 13 12 5 12 9 6 8 8 4 4 4 11 16 18 20 18 19 20 20 20 19 19 17 14 12 13 14 12 12 13 12 10 8 7 7 7 8 9 8 10 12 12 12
10 1 8 8 9 12 12 11 9 7 4 11 12 16 19 17 19 18 20 20 19 18 17 14 11 11 12 13 12 11 10 10 10 10 7 6 6 4 5 7 7 9 12 12
10 6 11 11 13 12 12 9 9 7 5 5 2 8 8 6 11 14 13 13 14 11 10 11 10 11 11 9 7 7 8 8 7 8 9 12 8 8 7 6 5 5 7 9
3 10 12 12 11 11 5 4 7 8 9 9 13 8 6 1 9 14 10 3 1 2 5 7 5 6 4 4 4 5 7 6 6 5 9 8 10 6 4 3 4 5 5 7
2 1 9 10 8 12 6 7 5 3 4 8 15 12 6 8 7 1 3 5 4 3 2 1 1 1 2 3 3 3 3 3 1 5 7 9 8 8 5 4 4 4 4 4
6 9 4 6 10 9 13 12 3 4 5 8 3 9 13 7 4 4 2 4 5 4 2 1 3 4 5 6 5 6 6 7 6 6 5 1 2 4 4 4 3 3 3 3
9 8 14 13 14 9 19 15 4 6 6 1 4 9 3 5 2 2 4 5 8 6 3 4 3 4 5 5 5 6 6 6 6 6 6 5 4 3 3 3 3 3 3 4
9 7 12 14 7 10 15 15 3 4 2 3 7 10 10 9 7 7 4 2 5 4 3 3 3 3 4 4 4 4 4 5 6 5 5 5 5 5 4 4 4 4 4 4
6 4 3 7 6 8 6 10 5 5 5 7 7 7 7 3 8 5 9 8 6 3 1 2 3 3 3 2 2 3 4 5 5 5 4 4 5 5 5 4 5 5 5 5
5 2 3 7 12 14 8 10 7 5 7 3 4 2 3 4 6 8 5 4 8 7 5 4 4 3 3 2 2 2 3 3 4 3 4 4 4 4 4 4 4 5 6 6
9 3 6 8 3 6 13 15 16 5 6 7 7 7 4 5 9 5 6 1 4 4 5 4 5 5 4 3 2 2 2 2 3 3 4 4 4 4 4 5 5 5 6 6
13 7 5 4 3 4 11 18 15 16 3 10 6 3 0 7 6 2 4 5 2 4 4 6 7 7 8 7 6 5 3 2 1 1 2 3 4 4 4 4 4 4 5 5
12 6 12 11 4 12 10 15 18 15 10 15 16 18 9 7 6 10 13 13 12 13 13 9 9 10 9 8 8 7 5 4 3 2 2 3 3 2 2 3 3 4 5 5
9 6 10 16 2 5 8 11 15 19 24 19 22 24 18 17 15 13 12 10 11 11 12 12 11 10 12 11 10 8 7 7 5 5 4 3 3 2 1 2 3 3 4 5
9 4 4 2 15 11 3 8 14 20 22 21 24 26 16 19 17 17 16 12 12 13 14 12 11 10 12 12 11 10 10 8 7 6 5 3 3 2 0 2 3 3 4 5
9 7 7 8 9 7 8 20 20 17 21 20 21 22 17 17 16 15 13 14 16 16 13 15 14 10 11 12 12 11 9 8 8 7 5 4 2 2 1 2 3 4 5 6
7 7 6 4 3 13 13 15 19 22 22 19 20 21 22 20 19 18 13 16 18 18 17 17 14 13 10 10 11 10 9 9 8 7 6 4 2 1 2 3 3 4 4 5
14 11 6 7 9 8 8 11 18 16 21 16 19 23 22 18 19 20 14 18 17 17 17 15 13 11 11 9 10 10 9 8 8 7 6 4 2 1 2 3 4 4 5 4
10 11 10 6 7 10 15 20 12 8 12 19 21 20 18 18 13 13 9 8 9 13 14 10 4 2 3 6 9 10 9 8 7 6 5 4 2 1 2 3 4 4 5 5
5 8 16 15 12 8 14 2 6 11 14 17 14 17 19 16 14 16 12 9 2 3 5 3 2 2 0 5 7 8 8 7 8 7 5 4 3 3 3 4 4 4 5 5
12 7 10 11 12 16 19 7 16 19 12 13 10 9 8 12 12 12 10 11 6 6 3 0 2 5 4 3 4 7 8 8 8 7 6 5 4 3 3 3 3 4 4 4
7 12 8 8 7 7 4 16 8 10 11 5 5 4 4 7 11 13 12 11 4 4 3 4 6 7 7 4 3 8 7 6 6 5 5 4 3 3 3 3 4 3 4 4
7 6 4 3 13 16 9 3 1 1 4 6 7 5 3 9 10 12 10 5 3 4 5 6 8 8 9 7 9 9 6 5 4 6 4 4 4 3 4 4 2 3 4 4
6 8 6 8 17 8 13 10 5 8 8 8 5 7 7 6 13 10 10 4 5 5 6 7 8 9 9 9 9 6 5 2 5 6 5 4 3 3 2 0 1 2 2 3
7 10 9 10 3 5 14 5 3 8 9 10 6 8 5 7 12 7 6 3 6 7 7 7 5 11 11 9 8 6 5 4 3 5 4 4 3 1 1 2 2 1 1 6
Wind_Direction
185 206 208 206 214 257 304 214 242 195 83 284 246 257 263 266 268 262 258 255 257 255 259 256 253 250 249 244 242 226 229 228 221 212 219 222 227 219 232 239 247 241 231 230
169 228 226 252 217 212 229 226 231 271 243 257 275 272 270 262 257 254 258 255 256 263 261 260 251 253 253 248 244 236 236 230 215 219 213 226 226 235 227 223 227 244 249 240
215 8 175 203 189 208 224 237 246 261 322 249 289 276 247 248 246 249 255 259 264 265 270 273 272 259 250 247 236 237 235 238 228 216 219 216 234 240 247 238 228 213 215 233
239 162 196 198 207 210 228 226 251 267 272 272 91 290 275 251 241 228 247 248 259 268 272 262 262 256 249 256 267 257 256 249 239 242 222 221 223 224 226 221 229 225 226 234
153 180 190 200 203 196 246 149 219 240 258 284 255 250 242 219 261 252 244 222 229 288 297 277 277 301 310 314 272 256 253 237 237 229 230 225 228 241 245 211 233 239 232 227
133 36 206 211 188 201 137 156 158 200 249 253 233 219 258 184 259 192 129 163 200 327 313 328 103 107 85 78 75 82 120 96 176 214 222 232 237 241 247 239 250 249 247 248
169 184 158 176 155 187 185 169 152 209 208 251 95 209 264 281 206 200 237 297 304 303 240 199 143 124 94 76 64 63 79 75 72 73 64 32 285 270 264 288 289 332 294 286
184 191 186 190 194 185 197 190 202 254 215 216 142 230 231 273 47 271 242 276 297 281 190 188 133 106 96 83 69 73 66 66 63 71 78 75 52 57 56 35 359 336 342 351
197 209 184 183 199 181 193 215 299 294 116 270 212 232 278 242 218 202 242 311 324 314 194 166 118 70 66 64 63 63 85 77 60 53 56 56 46 44 40 26 13 5 351 345
204 153 191 158 206 233 230 172 174 225 229 240 242 254 242 204 170 119 103 66 36 5 354 174 176 158 133 97 72 73 74 77 70 72 64 59 47 35 30 31 27 8 354 344
165 244 88 154 208 196 187 205 221 255 225 265 301 245 103 185 122 125 103 58 18 351 328 253 223 201 181 149 119 84 71 82 86 81 79 75 62 46 45 39 24 9 349 354
195 179 170 196 74 295 237 217 211 215 200 236 286 264 143 122 141 79 4 80 334 335 301 256 225 220 215 204 190 196 170 129 78 77 84 77 64 48 41 32 20 9 358 349
166 198 164 189 202 210 225 219 222 228 225 235 219 233 261 149 232 341 8 9 14 334 275 234 221 217 217 209 202 202 196 159 105 105 97 82 60 48 36 21 7 3 355 349
174 171 220 223 240 172 202 213 220 228 231 240 242 259 231 190 221 285 294 301 285 298 301 278 240 228 222 210 207 199 186 185 176 172 142 117 94 70 44 13 4 2 352 350
194 214 229 248 97 228 208 209 212 213 234 237 253 255 258 268 276 283 301 302 300 288 282 276 270 233 220 217 207 201 197 188 185 181 178 149 120 103 65 31 4 359 357 355
202 215 220 269 243 216 192 217 226 224 239 252 259 265 274 275 284 281 282 287 278 269 273 278 270 240 218 211 208 198 200 193 189 187 173 170 169 140 58 9 355 352 353 352
184 161 179 230 224 231 233 225 235 246 247 245 255 262 271 271 265 269 275 285 273 272 274 271 263 244 222 211 196 195 189 175 191 179 175 165 169 159 53 355 347 359 348 337
162 202 201 238 139 238 241 243 230 237 249 247 256 264 261 267 275 276 281 271 270 269 271 265 269 262 232 209 188 177 172 179 187 177 168 155 167 148 38 4 1 358 351 337
211 188 221 224 216 267 286 228 227 233 249 250 257 261 264 273 269 271 258 254 260 267 271 273 279 272 261 167 169 159 169 176 176 169 164 142 117 68 27 9 356 349 330 315
253 231 218 201 228 234 244 249 233 230 257 250 246 259 262 265 269 274 282 276 259 254 262 289 354 347 94 140 152 163 169 165 175 145 123 108 90 49 16 6 344 343 310 304
192 204 220 228 234 255 251 186 108 192 235 254 237 243 264 270 269 282 298 288 227 298 322 325 280 238 145 122 154 163 158 163 118 111 112 99 64 25 14 5 346 326 316 302
186 198 219 232 237 246 240 140 211 230 260 266 283 277 286 294 302 306 298 293 279 256 229 7 111 92 73 99 154 142 132 107 113 125 119 99 77 54 43 4 348 328 316 315
220 211 214 210 218 247 237 218 224 256 263 280 307 287 284 288 290 298 296 294 248 266 136 129 129 115 86 49 102 119 116 116 108 99 93 88 80 58 37 33 10 344 1 353
226 249 248 239 247 252 277 287 305 135 245 262 269 295 278 284 289 290 291 259 175 161 167 140 137 142 116 88 75 92 94 88 103 103 89 83 77 36 31 20 6 6 12 355
220 155 211 250 261 311 287 267 235 213 228 254 254 238 227 265 276 268 283 213 173 170 155 159 157 143 122 110 99 85 72 80 110 104 101 77 57 33 39 43 7 25 5 345
188 229 225 243 255 255 267 281 191 200 206 218 223 276 250 210 260 271 265 173 156 162 156 138 146 130 119 110 99 87 73 72 111 113 101 79 81 44 343 348 1 6 326 325